TimeMDT,TemperatureF,Dew PointF,Humidity,Sea Level PressureIn,VisibilityMPH,Wind Direction,Wind SpeedMPH,Gust SpeedMPH,PrecipitationIn,Events,Conditions,WindDirDegrees,DateUTC
12:53 AM,57.9,50.0,75,30.23,10.0,WNW,3.5,-,N/A,,Overcast,300,2013-09-12 06:53:00
1:53 AM,57.0,48.0,72,30.23,10.0,NW,6.9,-,N/A,,Clear,310,2013-09-12 07:53:00
2:53 AM,54.0,46.9,77,30.23,10.0,WNW,5.8,-,N/A,,Clear,300,2013-09-12 08:53:00
3:53 AM,53.1,46.9,80,30.23,10.0,Calm,Calm,-,N/A,,Clear,0,2013-09-12 09:53:00
4:53 AM,52.0,46.0,80,30.23,10.0,Calm,Calm,-,N/A,,Clear,0,2013-09-12 10:53:00
5:53 AM,50.0,45.0,83,30.24,10.0,Calm,Calm,-,N/A,,Clear,0,2013-09-12 11:53:00
6:53 AM,50.0,46.0,86,30.25,10.0,Calm,Calm,-,N/A,,Clear,0,2013-09-12 12:53:00
7:53 AM,55.0,48.9,80,30.27,10.0,Calm,Calm,-,N/A,,Clear,0,2013-09-12 13:53:00
8:53 AM,61.0,46.9,60,30.26,10.0,Calm,Calm,-,N/A,,Clear,0,2013-09-12 14:53:00
9:53 AM,66.0,48.0,52,30.26,10.0,Variable,3.5,-,N/A,,Clear,0,2013-09-12 15:53:00
10:53 AM,70.0,48.0,46,30.24,10.0,NNE,3.5,-,N/A,,Clear,20,2013-09-12 16:53:00
11:53 AM,75.9,50.0,40,30.19,10.0,ENE,6.9,-,N/A,,Clear,60,2013-09-12 17:53:00
12:53 PM,81.0,45.0,28,30.16,10.0,SSE,18.4,24.2,N/A,,Clear,150,2013-09-12 18:53:00
1:53 PM,77.0,45.0,32,30.15,10.0,SE,17.3,26.5,N/A,,Clear,130,2013-09-12 19:53:00
2:53 PM,79.0,46.0,31,30.13,10.0,SE,18.4,26.5,N/A,,Clear,130,2013-09-12 20:53:00
3:53 PM,73.9,48.0,40,30.12,10.0,SSE,21.9,28.8,N/A,,Clear,150,2013-09-12 21:53:00
4:53 PM,75.0,46.0,36,30.09,10.0,SE,24.2,32.2,N/A,,Partly Cloudy,140,2013-09-12 22:53:00
5:53 PM,73.9,46.0,37,30.09,10.0,SE,20.7,26.5,N/A,,Clear,130,2013-09-12 23:53:00
6:53 PM,70.0,48.9,47,30.10,10.0,SE,18.4,31.1,N/A,,Clear,140,2013-09-13 00:53:00
7:53 PM,68.0,50.0,52,30.08,10.0,SE,12.7,-,N/A,,Clear,130,2013-09-13 01:53:00
8:53 PM,68.0,48.0,49,30.06,10.0,SE,15.0,24.2,N/A,,Clear,140,2013-09-13 02:53:00
9:53 PM,68.0,48.0,49,30.06,10.0,South,15.0,-,N/A,,Clear,170,2013-09-13 03:53:00
10:53 PM,68.0,48.9,50,30.04,10.0,SSE,10.4,-,N/A,,Clear,160,2013-09-13 04:53:00
11:53 PM,69.1,50.0,51,30.02,10.0,SE,13.8,-,N/A,,Clear,130,2013-09-13 05:53:00